{"data":{"norad_id":47277,"epoch":"2026-05-25T02:04:43.599072Z","epoch_age_seconds":60753,"freshness":"FRESH","line1":"1 47277U 20100V   26145.08661573 -.00000157  00000+0 -47301-3 0  9996","line2":"2 47277  87.8949 355.2665 0001745  85.2000 274.9328 13.12443785261651","mean_motion":13.12443785,"eccentricity":0.0001745,"inclination_deg":87.8949,"raan_deg":355.2665,"arg_perigee_deg":85.2,"mean_anomaly_deg":274.9328,"bstar":-0.00047301,"rev_number":26165,"period_min":109.71898503066,"perigee_km":1212.3954847216,"apogee_km":1215.0450429067,"semimajor_km":7591.8572638141,"source":"CELESTRAK","updated_at":"2026-05-25T13:38:22.383208Z"}}